CZ-4C DEB, 43420

Orbit data source: Space-Track

CZ-4C DEB, 43420 is space debris in LEO originally from a launch on Wed, 10 Dec 2014 UTC launched from the Jiuquan Satellite Launch Center, China (JSC). Debris objects in space refer to the collection of defunct objects orbiting the Earth. Examples of debris include non-operational satellites, rocket bodies, and fragments generated from explosions, collisions, or faulty payload assembly.

Loading next visibility...
Identifier
43420, 2014-080J
Orbit
LEO
Country
Flag of CNCN / PRC
Related business
Manufacturer
SAST
Mission
Spacecraft
Bus & Motor
Unknown
Mass
Unknown
Launch date (UTC)
2014-12-10 (12 years ago)
Launch vehicle
Unknown
Launch site
Jiuquan Satellite Launch Center, China (JSC)
Object type
Payload
Rocket body
Debris
Shape & HBR
Unknown shape, 0.1 m
Radar Cross Section
Medium (>0.1 m² and <1 m²)

Expand to show TLE details & history
Last TLE update: 6 days ago

TLE from 6 days ago
0 CZ-4C DEB
1 43420U 14080J   26167.88303981  .00000766  00000-0  82013-3 0  9994
2 43420  63.3887 273.7217 0367050  11.2644 349.6326 13.54269943554977
Epoch: 2026-06-16T21:11Z
TLE epoch observation values (Epoch: 2026-06-16T21:11:34.639Z)
Latitude
-0.00009°
Longitude
50.67864°
Altitude
790.245 km
Speed
7.592 km/s
True Right ascension
18h 14m 53s
True Declination
0° 00' 00"
Sunlit
Object was in full shadow at epoch
Visualization orbit readout
Latitude
Unknown
Longitude
Unknown
Altitude
Unknown
Speed
Unknown
Apparent Right ascension
Unknown
Apparent Declination
Unknown
Sunlit
N/A
Visualization observer readout
Local Sidereal Time
23:20:19
Azimuth
Unknown
Elevation
Unknown
Doppler factor
Unknown
Orbital elements
Apogee altitude
1,328.262 km
Perigee altitude
782.565 km
Semi-major axis
7,433.55 km
Eccentricity
0.03671
Inclination
63.3887°
RAAN
273.7217°
Arg. of periapsis
11.2644°
True anomaly
348.84°
Mean anomaly
349.6326°
Eccentric anomaly
349.23997°
Mean motion
3.38648 °/min
Orbital period
106.31 mins
BSTAR
0.00082013
Loading maneuver chart data...
Computing Atmospheric mass density...
Loading historical data...
Loading historical data...
Loading historical data...
Loading historical data...
Loading historical data...
Loading historical data...
Loading historical data...

Documentation

Showing up to 5 results
|